Year,Month,Day,Hour,Minute,Value (Times are PST for temperature in C)
2016,03,22,00,00,-2.50
2016,03,22,00,01,-2.50
2016,03,22,00,02,-2.50
2016,03,22,00,03,-2.50
2016,03,22,00,04,-2.50
2016,03,22,00,05,-2.50
2016,03,22,00,06,-2.50
2016,03,22,00,07,-2.50
2016,03,22,00,08,-2.50
2016,03,22,00,09,-2.50
2016,03,22,00,10,-2.50
2016,03,22,00,11,-3.00
2016,03,22,00,12,-3.00
2016,03,22,00,13,-3.00
2016,03,22,00,14,-3.00
2016,03,22,00,15,-3.00
2016,03,22,00,16,-3.00
2016,03,22,00,18,-3.00
2016,03,22,00,19,-3.00
2016,03,22,00,20,-3.00
2016,03,22,00,21,-3.00
2016,03,22,00,22,-3.00
2016,03,22,00,23,-3.00
2016,03,22,00,24,-3.00
2016,03,22,00,25,-3.00
2016,03,22,00,26,-3.00
2016,03,22,00,27,-3.00
2016,03,22,00,28,-3.00
2016,03,22,00,29,-3.00
2016,03,22,00,30,-3.00
2016,03,22,00,31,-3.00
2016,03,22,00,32,-3.00
2016,03,22,00,33,-3.00
2016,03,22,00,34,-3.00
2016,03,22,00,35,-3.00
2016,03,22,00,36,-3.00
2016,03,22,00,37,-3.00
2016,03,22,00,38,-3.00
2016,03,22,00,39,-3.00
2016,03,22,00,40,-3.00
2016,03,22,00,41,-2.80
2016,03,22,00,42,-2.80
2016,03,22,00,43,-2.80
2016,03,22,00,44,-2.80
2016,03,22,00,45,-2.80
2016,03,22,00,46,-2.80
2016,03,22,00,47,-2.80
2016,03,22,00,48,-2.80
2016,03,22,00,49,-2.80
2016,03,22,00,50,-2.80
2016,03,22,00,51,-2.80
2016,03,22,00,52,-2.80
2016,03,22,00,53,-2.80
2016,03,22,00,54,-2.80
2016,03,22,00,55,-2.80
2016,03,22,00,56,-2.80
2016,03,22,00,57,-2.80
2016,03,22,00,58,-2.80
2016,03,22,00,59,-2.80
2016,03,22,01,00,-2.80
2016,03,22,01,01,-2.80
2016,03,22,01,02,-2.80
2016,03,22,01,03,-2.80
2016,03,22,01,04,-2.80
2016,03,22,01,05,-2.80
2016,03,22,01,06,-2.80
2016,03,22,01,07,-2.80
2016,03,22,01,08,-2.80
2016,03,22,01,09,-2.80
2016,03,22,01,10,-2.80
2016,03,22,01,11,-3.10
2016,03,22,01,12,-3.10
2016,03,22,01,13,-3.10
2016,03,22,01,14,-3.10
2016,03,22,01,15,-3.10
2016,03,22,01,16,-3.10
2016,03,22,01,17,-3.10
2016,03,22,01,18,-3.10
2016,03,22,01,19,-3.10
2016,03,22,01,20,-3.10
2016,03,22,01,21,-3.10
2016,03,22,01,22,-3.10
2016,03,22,01,23,-3.10
2016,03,22,01,24,-3.10
2016,03,22,01,25,-3.10
2016,03,22,01,26,-3.10
2016,03,22,01,27,-3.10
2016,03,22,01,28,-3.10
2016,03,22,01,29,-3.10
2016,03,22,01,30,-3.10
2016,03,22,01,31,-3.10
2016,03,22,01,32,-3.10
2016,03,22,01,33,-3.10
2016,03,22,01,34,-3.10
2016,03,22,01,35,-3.10
2016,03,22,01,36,-3.10
2016,03,22,01,37,-3.10
2016,03,22,01,38,-3.10
2016,03,22,01,39,-3.10
2016,03,22,01,40,-3.10
2016,03,22,01,41,-3.30
2016,03,22,01,42,-3.30
2016,03,22,01,43,-3.30
2016,03,22,01,44,-3.30
2016,03,22,01,45,-3.30
2016,03,22,01,46,-3.30
2016,03,22,01,47,-3.30
2016,03,22,01,48,-3.30
2016,03,22,01,49,-3.30
2016,03,22,01,50,-3.30
2016,03,22,01,51,-3.30
2016,03,22,01,52,-3.30
2016,03,22,01,53,-3.30
2016,03,22,01,54,-3.30
2016,03,22,01,55,-3.30
2016,03,22,01,56,-3.30
2016,03,22,01,57,-3.30
2016,03,22,01,58,-3.30
2016,03,22,01,59,-3.30
2016,03,22,02,00,-3.30
2016,03,22,02,01,-3.30
2016,03,22,02,02,-3.30
2016,03,22,02,03,-3.30
2016,03,22,02,04,-3.30
2016,03,22,02,05,-3.30
2016,03,22,02,06,-3.30
2016,03,22,02,07,-3.30
2016,03,22,02,08,-3.30
2016,03,22,02,09,-3.30
2016,03,22,02,10,-3.30
2016,03,22,02,11,-3.30
2016,03,22,02,12,-3.30
2016,03,22,02,13,-3.30
2016,03,22,02,14,-3.30
2016,03,22,02,15,-3.30
2016,03,22,02,16,-3.30
2016,03,22,02,17,-3.30
2016,03,22,02,18,-3.30
2016,03,22,02,19,-3.30
2016,03,22,02,20,-3.30
2016,03,22,02,21,-3.30
2016,03,22,02,22,-3.30
2016,03,22,02,23,-3.30
2016,03,22,02,24,-3.30
2016,03,22,02,25,-3.30
2016,03,22,02,26,-3.30
2016,03,22,02,27,-3.30
2016,03,22,02,28,-3.30
2016,03,22,02,29,-3.30
2016,03,22,02,30,-3.30
2016,03,22,02,31,-3.30
2016,03,22,02,32,-3.30
2016,03,22,02,33,-3.30
2016,03,22,02,34,-3.30
2016,03,22,02,35,-3.30
2016,03,22,02,36,-3.30
2016,03,22,02,37,-3.30
2016,03,22,02,38,-3.30
2016,03,22,02,39,-3.30
2016,03,22,02,40,-3.30
2016,03,22,02,41,-3.50
2016,03,22,02,42,-3.50
2016,03,22,02,43,-3.50
2016,03,22,02,44,-3.50
2016,03,22,02,45,-3.50
2016,03,22,02,46,-3.50
2016,03,22,02,47,-3.50
2016,03,22,02,48,-3.50
2016,03,22,02,49,-3.50
2016,03,22,02,50,-3.50
2016,03,22,02,51,-3.50
2016,03,22,02,52,-3.50
2016,03,22,02,53,-3.50
2016,03,22,02,54,-3.50
2016,03,22,02,55,-3.50
2016,03,22,02,56,-3.50
2016,03,22,02,57,-3.50
2016,03,22,02,58,-3.50
2016,03,22,02,59,-3.50
2016,03,22,03,00,-3.50
2016,03,22,03,01,-3.50
2016,03,22,03,02,-3.50
2016,03,22,03,03,-3.50
2016,03,22,03,04,-3.50
2016,03,22,03,05,-3.50
2016,03,22,03,06,-3.50
2016,03,22,03,07,-3.50
2016,03,22,03,08,-3.50
2016,03,22,03,09,-3.50
2016,03,22,03,10,-3.50
2016,03,22,03,11,-3.60
2016,03,22,03,12,-3.60
2016,03,22,03,13,-3.60
2016,03,22,03,14,-3.60
2016,03,22,03,15,-3.60
2016,03,22,03,16,-3.60
2016,03,22,03,17,-3.60
2016,03,22,03,18,-3.60
2016,03,22,03,19,-3.60
2016,03,22,03,20,-3.60
2016,03,22,03,21,-3.60
2016,03,22,03,22,-3.60
2016,03,22,03,23,-3.60
2016,03,22,03,24,-3.60
2016,03,22,03,25,-3.60
2016,03,22,03,26,-3.60
2016,03,22,03,27,-3.60
2016,03,22,03,28,-3.60
2016,03,22,03,29,-3.60
2016,03,22,03,30,-3.60
2016,03,22,03,31,-3.60
2016,03,22,03,32,-3.60
2016,03,22,03,33,-3.60
2016,03,22,03,34,-3.60
2016,03,22,03,35,-3.60
2016,03,22,03,36,-3.60
2016,03,22,03,37,-3.60
2016,03,22,03,38,-3.60
2016,03,22,03,39,-3.60
2016,03,22,03,40,-3.60
2016,03,22,03,41,-3.60
2016,03,22,03,42,-3.40
2016,03,22,03,43,-3.40
2016,03,22,03,44,-3.40
2016,03,22,03,45,-3.40
2016,03,22,03,46,-3.40
2016,03,22,03,47,-3.40
2016,03,22,03,48,-3.40
2016,03,22,03,49,-3.40
2016,03,22,03,50,-3.40
2016,03,22,03,51,-3.40
2016,03,22,03,52,-3.40
2016,03,22,03,53,-3.40
2016,03,22,03,54,-3.40
2016,03,22,03,55,-3.40
2016,03,22,03,56,-3.40
2016,03,22,03,57,-3.40
2016,03,22,03,58,-3.40
2016,03,22,03,59,-3.40
2016,03,22,04,00,-3.40
2016,03,22,04,01,-3.40
2016,03,22,04,02,-3.40
2016,03,22,04,03,-3.40
2016,03,22,04,04,-3.40
2016,03,22,04,05,-3.40
2016,03,22,04,06,-3.40
2016,03,22,04,07,-3.40
2016,03,22,04,08,-3.40
2016,03,22,04,09,-3.40
2016,03,22,04,10,-3.40
2016,03,22,04,11,-3.40
2016,03,22,04,12,-3.20
2016,03,22,04,13,-3.20
2016,03,22,04,14,-3.20
2016,03,22,04,15,-3.20
2016,03,22,04,16,-3.20
2016,03,22,04,17,-3.20
2016,03,22,04,18,-3.20
2016,03,22,04,19,-3.20
2016,03,22,04,20,-3.20
2016,03,22,04,21,-3.20
2016,03,22,04,22,-3.20
2016,03,22,04,23,-3.20
2016,03,22,04,24,-3.20
2016,03,22,04,25,-3.20
2016,03,22,04,26,-3.20
2016,03,22,04,27,-3.20
2016,03,22,04,28,-3.20
2016,03,22,04,29,-3.20
2016,03,22,04,30,-3.20
2016,03,22,04,31,-3.20
2016,03,22,04,32,-3.20
2016,03,22,04,33,-3.20
2016,03,22,04,34,-3.20
2016,03,22,04,35,-3.20
2016,03,22,04,36,-3.20
2016,03,22,04,37,-3.20
2016,03,22,04,38,-3.20
2016,03,22,04,39,-3.20
2016,03,22,04,40,-3.20
2016,03,22,04,41,-3.60
2016,03,22,04,42,-3.60
2016,03,22,04,43,-3.60
2016,03,22,04,44,-3.60
2016,03,22,04,45,-3.60
2016,03,22,04,46,-3.60
2016,03,22,04,47,-3.60
2016,03,22,04,48,-3.60
2016,03,22,04,49,-3.60
2016,03,22,04,50,-3.60
2016,03,22,04,51,-3.60
2016,03,22,04,52,-3.60
2016,03,22,04,53,-3.60
2016,03,22,04,54,-3.60
2016,03,22,04,55,-3.60
2016,03,22,04,56,-3.60
2016,03,22,04,57,-3.60
2016,03,22,04,58,-3.60
2016,03,22,04,59,-3.60
2016,03,22,05,00,-3.60
2016,03,22,05,01,-3.60
2016,03,22,05,02,-3.60
2016,03,22,05,03,-3.60
2016,03,22,05,04,-3.60
2016,03,22,05,05,-3.60
2016,03,22,05,06,-3.60
2016,03,22,05,07,-3.60
2016,03,22,05,08,-3.60
2016,03,22,05,09,-3.60
2016,03,22,05,10,-3.60
2016,03,22,05,11,-3.40
2016,03,22,05,12,-3.40
2016,03,22,05,13,-3.40
2016,03,22,05,14,-3.40
2016,03,22,05,15,-3.40
2016,03,22,05,16,-3.40
2016,03,22,05,17,-3.40
2016,03,22,05,18,-3.40
2016,03,22,05,19,-3.40
2016,03,22,05,20,-3.40
2016,03,22,05,21,-3.40
2016,03,22,05,22,-3.40
2016,03,22,05,23,-3.40
2016,03,22,05,24,-3.40
2016,03,22,05,25,-3.40
2016,03,22,05,26,-3.40
2016,03,22,05,27,-3.40
2016,03,22,05,28,-3.40
2016,03,22,05,29,-3.40
2016,03,22,05,30,-3.40
2016,03,22,05,31,-3.40
2016,03,22,05,32,-3.40
2016,03,22,05,33,-3.40
2016,03,22,05,34,-3.40
2016,03,22,05,35,-3.40
2016,03,22,05,36,-3.40
2016,03,22,05,37,-3.40
2016,03,22,05,38,-3.40
2016,03,22,05,39,-3.40
2016,03,22,05,40,-3.40
2016,03,22,05,41,-3.30
2016,03,22,05,42,-3.30
2016,03,22,05,43,-3.30
2016,03,22,05,44,-3.30
2016,03,22,05,45,-3.30
2016,03,22,05,46,-3.30
2016,03,22,05,47,-3.30
2016,03,22,05,48,-3.30
2016,03,22,05,49,-3.30
2016,03,22,05,50,-3.30
2016,03,22,05,51,-3.30
2016,03,22,05,52,-3.30
2016,03,22,05,53,-3.30
2016,03,22,05,54,-3.30
2016,03,22,05,55,-3.30
2016,03,22,05,56,-3.30
2016,03,22,05,57,-3.30
2016,03,22,05,58,-3.30
2016,03,22,05,59,-3.30
2016,03,22,06,00,-3.30
2016,03,22,06,01,-3.30
2016,03,22,06,02,-3.30
2016,03,22,06,03,-3.30
2016,03,22,06,04,-3.30
2016,03,22,06,05,-3.30
2016,03,22,06,06,-3.30
2016,03,22,06,07,-3.30
2016,03,22,06,08,-3.30
2016,03,22,06,09,-3.30
2016,03,22,06,10,-3.30
2016,03,22,06,11,-3.30
2016,03,22,06,12,-4.10
2016,03,22,06,13,-4.10
2016,03,22,06,14,-4.10
2016,03,22,06,15,-4.10
2016,03,22,06,16,-4.10
2016,03,22,06,17,-4.10
2016,03,22,06,18,-4.10
2016,03,22,06,19,-4.10
2016,03,22,06,20,-4.10
2016,03,22,06,21,-4.10
2016,03,22,06,22,-4.10
2016,03,22,06,23,-4.10
2016,03,22,06,24,-4.10
2016,03,22,06,25,-4.10
2016,03,22,06,26,-4.10
2016,03,22,06,27,-4.10
2016,03,22,06,28,-4.10
2016,03,22,06,29,-4.10
2016,03,22,06,30,-4.10
2016,03,22,06,31,-4.10
2016,03,22,06,32,-4.10
2016,03,22,06,33,-4.10
2016,03,22,06,34,-4.10
2016,03,22,06,35,-4.10
2016,03,22,06,36,-4.10
2016,03,22,06,37,-4.10
2016,03,22,06,38,-4.10
2016,03,22,06,39,-4.10
2016,03,22,06,40,-4.10
2016,03,22,06,41,-4.10
2016,03,22,06,42,-4.40
2016,03,22,06,43,-4.40
2016,03,22,06,44,-4.40
2016,03,22,06,45,-4.40
2016,03,22,06,46,-4.40
2016,03,22,06,47,-4.40
2016,03,22,06,48,-4.40
2016,03,22,06,49,-4.40
2016,03,22,06,50,-4.40
2016,03,22,06,51,-4.40
2016,03,22,06,52,-4.40
2016,03,22,06,53,-4.40
2016,03,22,06,54,-4.40
2016,03,22,06,55,-4.40
2016,03,22,06,56,-4.40
2016,03,22,06,57,-4.40
2016,03,22,06,58,-4.40
2016,03,22,06,59,-4.40
2016,03,22,07,00,-4.40
2016,03,22,07,01,-4.40
2016,03,22,07,02,-4.40
2016,03,22,07,03,-4.40
2016,03,22,07,04,-4.40
2016,03,22,07,05,-4.40
2016,03,22,07,06,-4.40
2016,03,22,07,07,-4.40
2016,03,22,07,08,-4.40
2016,03,22,07,09,-4.40
2016,03,22,07,10,-4.40
2016,03,22,07,11,-4.40
2016,03,22,07,12,-4.40
2016,03,22,07,13,-4.40
2016,03,22,07,14,-4.40
2016,03,22,07,15,-4.40
2016,03,22,07,16,-4.40
2016,03,22,07,17,-4.40
2016,03,22,07,18,-4.40
2016,03,22,07,19,-4.40
2016,03,22,07,20,-4.40
2016,03,22,07,21,-4.40
2016,03,22,07,22,-4.40
2016,03,22,07,23,-4.40
2016,03,22,07,24,-4.40
2016,03,22,07,25,-4.40
2016,03,22,07,26,-4.40
2016,03,22,07,27,-4.40
2016,03,22,07,28,-4.40
2016,03,22,07,29,-4.40
2016,03,22,07,30,-4.40
2016,03,22,07,31,-4.40
2016,03,22,07,32,-4.40
2016,03,22,07,33,-4.40
2016,03,22,07,34,-4.40
2016,03,22,07,35,-4.40
2016,03,22,07,36,-4.40
2016,03,22,07,37,-4.40
2016,03,22,07,38,-4.40
2016,03,22,07,39,-4.40
2016,03,22,07,40,-4.40
2016,03,22,07,41,-4.40
2016,03,22,07,42,-4.40
2016,03,22,07,43,-4.40
2016,03,22,07,44,-4.40
2016,03,22,07,45,-4.40
2016,03,22,07,46,-4.40
2016,03,22,07,47,-4.40
2016,03,22,07,48,-4.40
2016,03,22,07,49,-4.40
2016,03,22,07,50,-4.40
2016,03,22,07,51,-4.40
2016,03,22,07,52,-4.40
2016,03,22,07,53,-4.40
2016,03,22,07,54,-4.40
2016,03,22,07,55,-4.40
2016,03,22,07,56,-4.40
2016,03,22,07,57,-4.40
2016,03,22,07,58,-4.40
2016,03,22,07,59,-4.40
2016,03,22,08,00,-4.40
2016,03,22,08,01,-4.40
2016,03,22,08,02,-4.40
2016,03,22,08,03,-4.40
2016,03,22,08,04,-4.40
2016,03,22,08,05,-4.40
2016,03,22,08,06,-4.40
2016,03,22,08,07,-4.40
2016,03,22,08,08,-4.40
2016,03,22,08,09,-4.40
2016,03,22,08,10,-4.40
2016,03,22,08,11,-4.40
2016,03,22,08,12,-4.40
2016,03,22,08,13,-4.50
2016,03,22,08,14,-4.50
2016,03,22,08,15,-4.50
2016,03,22,08,16,-4.50
2016,03,22,08,17,-4.50
2016,03,22,08,18,-4.50
2016,03,22,08,19,-4.50
2016,03,22,08,20,-4.50
2016,03,22,08,21,-4.50
2016,03,22,08,22,-4.50
2016,03,22,08,23,-4.50
2016,03,22,08,24,-4.50
2016,03,22,08,25,-4.50
2016,03,22,08,26,-4.50
2016,03,22,08,27,-4.50
2016,03,22,08,28,-4.50
2016,03,22,08,29,-4.50
2016,03,22,08,30,-4.50
2016,03,22,08,31,-4.50
2016,03,22,08,32,-4.50
2016,03,22,08,33,-4.50
2016,03,22,08,34,-4.50
2016,03,22,08,35,-4.50
2016,03,22,08,36,-4.50
2016,03,22,08,37,-4.50
2016,03,22,08,38,-4.50
2016,03,22,08,39,-4.50
2016,03,22,08,40,-4.50
2016,03,22,08,41,-4.50
2016,03,22,08,42,-4.30
2016,03,22,08,43,-4.30
2016,03,22,08,44,-4.30
2016,03,22,08,45,-4.30
2016,03,22,08,46,-4.30
2016,03,22,08,47,-4.30
2016,03,22,08,48,-4.30
2016,03,22,08,49,-4.30
2016,03,22,08,50,-4.30
2016,03,22,08,51,-4.30
2016,03,22,08,52,-4.30
2016,03,22,08,53,-4.30
2016,03,22,08,54,-4.30
2016,03,22,08,55,-4.30
2016,03,22,08,56,-4.30
2016,03,22,08,57,-4.30
2016,03,22,08,58,-4.30
2016,03,22,08,59,-4.30
2016,03,22,09,00,-4.30
2016,03,22,09,01,-4.30
2016,03,22,09,02,-4.30
2016,03,22,09,03,-4.30
2016,03,22,09,04,-4.30
2016,03,22,09,05,-4.30
2016,03,22,09,06,-4.30
2016,03,22,09,07,-4.30
2016,03,22,09,08,-4.30
2016,03,22,09,09,-4.30
2016,03,22,09,10,-4.30
2016,03,22,09,11,-4.30
2016,03,22,09,12,-2.60
2016,03,22,09,13,-2.60
2016,03,22,09,14,-2.60
2016,03,22,09,15,-2.60
2016,03,22,09,16,-2.60
2016,03,22,09,17,-2.60
2016,03,22,09,18,-2.60
2016,03,22,09,19,-2.60
2016,03,22,09,20,-2.60
2016,03,22,09,21,-2.60
2016,03,22,09,22,-2.60
2016,03,22,09,23,-2.60
2016,03,22,09,24,-2.60
2016,03,22,09,25,-2.60
2016,03,22,09,26,-2.60
2016,03,22,09,27,-2.60
2016,03,22,09,28,-2.60
2016,03,22,09,29,-2.60
2016,03,22,09,30,-2.60
2016,03,22,09,31,-2.60
2016,03,22,09,32,-2.60
2016,03,22,09,33,-2.60
2016,03,22,09,34,-2.60
2016,03,22,09,35,-2.60
2016,03,22,09,36,-2.60
2016,03,22,09,37,-2.60
2016,03,22,09,38,-2.60
2016,03,22,09,39,-2.60
2016,03,22,09,40,-2.60
2016,03,22,09,41,-2.60
2016,03,22,09,42,-1.70
2016,03,22,09,43,-1.70
2016,03,22,09,44,-1.70
2016,03,22,09,45,-1.70
2016,03,22,09,46,-1.70
2016,03,22,09,47,-1.70
2016,03,22,09,48,-1.70
2016,03,22,09,49,-1.70
2016,03,22,09,50,-1.70
2016,03,22,09,51,-1.70
2016,03,22,09,52,-1.70
2016,03,22,09,53,-1.70
2016,03,22,09,54,-1.70
2016,03,22,09,55,-1.70
2016,03,22,09,56,-1.70
2016,03,22,09,57,-1.70
2016,03,22,09,58,-1.70
2016,03,22,09,59,-1.70
2016,03,22,10,00,-1.70
2016,03,22,10,01,-1.70
2016,03,22,10,02,-1.70
2016,03,22,10,03,-1.70
2016,03,22,10,04,-1.70
2016,03,22,10,05,-1.70
2016,03,22,10,06,-1.70
2016,03,22,10,07,-1.70
2016,03,22,10,08,-1.70
2016,03,22,10,09,-1.70
2016,03,22,10,10,-1.70
2016,03,22,10,11,-1.70
2016,03,22,10,12,-0.60
2016,03,22,10,13,-0.60
2016,03,22,10,14,-0.60
2016,03,22,10,15,-0.60
2016,03,22,10,16,-0.60
2016,03,22,10,17,-0.60
2016,03,22,10,18,-0.60
2016,03,22,10,19,-0.60
2016,03,22,10,20,-0.60
2016,03,22,10,21,-0.60
2016,03,22,10,22,-0.60
2016,03,22,10,23,-0.60
2016,03,22,10,24,-0.60
2016,03,22,10,25,-0.60
2016,03,22,10,26,-0.60
2016,03,22,10,27,-0.60
2016,03,22,10,28,-0.60
2016,03,22,10,29,-0.60
2016,03,22,10,30,-0.60
2016,03,22,10,31,-0.60
2016,03,22,10,32,-0.60
2016,03,22,10,33,-0.60
2016,03,22,10,34,-0.60
2016,03,22,10,35,-0.60
2016,03,22,10,36,-0.60
2016,03,22,10,37,-0.60
2016,03,22,10,38,-0.60
2016,03,22,10,39,-0.60
2016,03,22,10,40,-0.60
2016,03,22,10,41,-0.60
2016,03,22,10,42,-0.60
2016,03,22,10,43,0.30
2016,03,22,10,44,0.30
2016,03,22,10,45,0.30
2016,03,22,10,46,0.30
2016,03,22,10,47,0.30
2016,03,22,10,48,0.30
2016,03,22,10,49,0.30
2016,03,22,10,50,0.30
2016,03,22,10,51,0.30
2016,03,22,10,52,0.30
2016,03,22,10,53,0.30
2016,03,22,10,54,0.30
2016,03,22,10,55,0.30
2016,03,22,10,56,0.30
2016,03,22,10,57,0.30
2016,03,22,10,58,0.30
2016,03,22,10,59,0.30
2016,03,22,11,00,0.30
2016,03,22,11,01,0.30
2016,03,22,11,02,0.30
2016,03,22,11,03,0.30
2016,03,22,11,04,0.30
2016,03,22,11,05,0.30
2016,03,22,11,06,0.30
2016,03,22,11,07,0.30
2016,03,22,11,08,0.30
2016,03,22,11,09,0.30
2016,03,22,11,10,0.30
2016,03,22,11,11,1.90
2016,03,22,11,12,1.90
2016,03,22,11,13,1.90
2016,03,22,11,14,1.90
2016,03,22,11,15,1.90
2016,03,22,11,16,1.90
2016,03,22,11,17,1.90
2016,03,22,11,18,1.90
2016,03,22,11,19,1.90
2016,03,22,11,20,1.90
2016,03,22,11,21,1.90
2016,03,22,11,22,1.90
2016,03,22,11,23,1.90
2016,03,22,11,24,1.90
2016,03,22,11,25,1.90
2016,03,22,11,26,1.90
2016,03,22,11,27,1.90
2016,03,22,11,28,1.90
2016,03,22,11,29,1.90
2016,03,22,11,30,1.90
2016,03,22,11,31,1.90
2016,03,22,11,32,1.90
2016,03,22,11,33,1.90
2016,03,22,11,34,1.90
2016,03,22,11,35,1.90
2016,03,22,11,36,1.90
2016,03,22,11,37,1.90
2016,03,22,11,38,1.90
2016,03,22,11,39,1.90
2016,03,22,11,40,1.90
2016,03,22,11,41,2.30
2016,03,22,11,42,2.30
2016,03,22,11,43,2.30
2016,03,22,11,44,2.30
2016,03,22,11,45,2.30
2016,03,22,11,46,2.30
2016,03,22,11,47,2.30
2016,03,22,11,48,2.30
2016,03,22,11,49,2.30
2016,03,22,11,50,2.30
2016,03,22,11,51,2.30
2016,03,22,11,52,2.30
2016,03,22,11,53,2.30
2016,03,22,11,54,2.30
2016,03,22,11,55,2.30
2016,03,22,11,56,2.30
2016,03,22,11,57,2.30
2016,03,22,11,58,2.30
2016,03,22,11,59,2.30
2016,03,22,12,00,2.30
2016,03,22,12,01,2.30
2016,03,22,12,02,2.30
2016,03,22,12,03,2.30
2016,03,22,12,04,2.30
2016,03,22,12,05,2.30
2016,03,22,12,06,2.30
2016,03,22,12,07,2.30
2016,03,22,12,08,2.30
2016,03,22,12,09,2.30
2016,03,22,12,10,2.30
2016,03,22,12,11,2.10
2016,03,22,12,12,2.10
2016,03,22,12,13,2.10
2016,03,22,12,14,2.10
2016,03,22,12,15,2.10
2016,03,22,12,16,2.10
2016,03,22,12,17,2.10
2016,03,22,12,18,2.10
2016,03,22,12,19,2.10
2016,03,22,12,20,2.10
2016,03,22,12,21,2.10
2016,03,22,12,22,2.10
2016,03,22,12,23,2.10
2016,03,22,12,24,2.10
2016,03,22,12,25,2.10
2016,03,22,12,26,2.10
2016,03,22,12,27,2.10
2016,03,22,12,28,2.10
2016,03,22,12,29,2.10
2016,03,22,12,30,2.10
2016,03,22,12,31,2.10
2016,03,22,12,32,2.10
2016,03,22,12,33,2.10
2016,03,22,12,34,2.10
2016,03,22,12,35,2.10
2016,03,22,12,36,2.10
2016,03,22,12,37,2.10
2016,03,22,12,38,2.10
2016,03,22,12,39,2.10
2016,03,22,12,40,2.10
2016,03,22,12,41,2.10
2016,03,22,12,42,2.50
2016,03,22,12,43,2.50
2016,03,22,12,44,2.50
2016,03,22,12,45,2.50
2016,03,22,12,46,2.50
2016,03,22,12,47,2.50
2016,03,22,12,48,2.50
2016,03,22,12,49,2.50
2016,03,22,12,50,2.50
2016,03,22,12,51,2.50
2016,03,22,12,52,2.50
2016,03,22,12,53,2.50
2016,03,22,12,54,2.50
2016,03,22,12,55,2.50
2016,03,22,12,56,2.50
2016,03,22,12,57,2.50
2016,03,22,12,58,2.50
2016,03,22,12,59,2.50
2016,03,22,13,00,2.50
2016,03,22,13,01,2.50
2016,03,22,13,02,2.50
2016,03,22,13,03,2.50
2016,03,22,13,04,2.50
2016,03,22,13,05,2.50
2016,03,22,13,06,2.50
2016,03,22,13,07,2.50
2016,03,22,13,08,2.50
2016,03,22,13,09,2.50
2016,03,22,13,10,2.50
2016,03,22,13,11,2.50
2016,03,22,13,12,2.40
2016,03,22,13,13,2.40
2016,03,22,13,14,2.40
2016,03,22,13,15,2.40
2016,03,22,13,16,2.40
2016,03,22,13,17,2.40
2016,03,22,13,18,2.40
2016,03,22,13,19,2.40
2016,03,22,13,20,2.40
2016,03,22,13,21,2.40
2016,03,22,13,22,2.40
2016,03,22,13,23,2.40
2016,03,22,13,24,2.40
2016,03,22,13,25,2.40
2016,03,22,13,26,2.40
2016,03,22,13,27,2.40
2016,03,22,13,28,2.40
2016,03,22,13,29,2.40
2016,03,22,13,30,2.40
2016,03,22,13,31,2.40
2016,03,22,13,32,2.40
2016,03,22,13,33,2.40
2016,03,22,13,34,2.40
2016,03,22,13,35,2.40
2016,03,22,13,36,2.40
2016,03,22,13,37,2.40
2016,03,22,13,38,2.40
2016,03,22,13,39,2.40
2016,03,22,13,40,2.40
2016,03,22,13,41,2.40
2016,03,22,13,42,2.60
2016,03,22,13,43,2.60
2016,03,22,13,44,2.60
2016,03,22,13,45,2.60
2016,03,22,13,46,2.60
2016,03,22,13,47,2.60
2016,03,22,13,48,2.60
2016,03,22,13,49,2.60
2016,03,22,13,50,2.60
2016,03,22,13,51,2.60
2016,03,22,13,52,2.60
2016,03,22,13,53,2.60
2016,03,22,13,54,2.60
2016,03,22,13,55,2.60
2016,03,22,13,56,2.60
2016,03,22,13,57,2.60
2016,03,22,13,58,2.60
2016,03,22,13,59,2.60
2016,03,22,14,00,2.60
2016,03,22,14,01,2.60
2016,03,22,14,02,2.60
2016,03,22,14,03,2.60
2016,03,22,14,04,2.60
2016,03,22,14,05,2.60
2016,03,22,14,06,2.60
2016,03,22,14,07,2.60
2016,03,22,14,08,2.60
2016,03,22,14,09,2.60
2016,03,22,14,10,2.60
2016,03,22,14,11,2.60
2016,03,22,14,12,2.60
2016,03,22,14,13,1.60
2016,03,22,14,14,1.60
2016,03,22,14,15,1.60
2016,03,22,14,16,1.60
2016,03,22,14,17,1.60
2016,03,22,14,18,1.60
2016,03,22,14,19,1.60
2016,03,22,14,20,1.60
2016,03,22,14,21,1.60
2016,03,22,14,22,1.60
2016,03,22,14,23,1.60
2016,03,22,14,24,1.60
2016,03,22,14,25,1.60
2016,03,22,14,26,1.60
2016,03,22,14,27,1.60
2016,03,22,14,28,1.60
2016,03,22,14,29,1.60
2016,03,22,14,30,1.60
2016,03,22,14,31,1.60
2016,03,22,14,32,1.60
2016,03,22,14,33,1.60
2016,03,22,14,34,1.60
2016,03,22,14,35,1.60
2016,03,22,14,36,1.60
2016,03,22,14,37,1.60
2016,03,22,14,38,1.60
2016,03,22,14,39,1.60
2016,03,22,14,40,1.60
2016,03,22,14,41,1.60
2016,03,22,14,42,1.60
2016,03,22,14,43,2.90
2016,03,22,14,44,2.90
2016,03,22,14,45,2.90
2016,03,22,14,46,2.90
2016,03,22,14,47,2.90
2016,03,22,14,48,2.90
2016,03,22,14,49,2.90
2016,03,22,14,50,2.90
2016,03,22,14,51,2.90
2016,03,22,14,52,2.90
2016,03,22,14,53,2.90
2016,03,22,14,54,2.90
2016,03,22,14,55,2.90
2016,03,22,14,56,2.90
2016,03,22,14,57,2.90
2016,03,22,14,58,2.90
2016,03,22,14,59,2.90
2016,03,22,15,00,2.90
2016,03,22,15,01,2.90
2016,03,22,15,02,2.90
2016,03,22,15,03,2.90
2016,03,22,15,04,2.90
2016,03,22,15,05,2.90
2016,03,22,15,06,2.90
2016,03,22,15,07,2.90
2016,03,22,15,08,2.90
2016,03,22,15,09,2.90
2016,03,22,15,10,2.90
2016,03,22,15,11,1.70
2016,03,22,15,12,1.70
2016,03,22,15,13,1.70
2016,03,22,15,14,1.70
2016,03,22,15,15,1.70
2016,03,22,15,16,1.70
2016,03,22,15,17,1.70
2016,03,22,15,18,1.70
2016,03,22,15,19,1.70
2016,03,22,15,20,1.70
2016,03,22,15,21,1.70
2016,03,22,15,22,1.70
2016,03,22,15,23,1.70
2016,03,22,15,24,1.70
2016,03,22,15,25,1.70
2016,03,22,15,26,1.70
2016,03,22,15,27,1.70
2016,03,22,15,28,1.70
2016,03,22,15,29,1.70
2016,03,22,15,30,1.70
2016,03,22,15,31,1.70
2016,03,22,15,32,1.70
2016,03,22,15,33,1.70
2016,03,22,15,34,1.70
2016,03,22,15,35,1.70
2016,03,22,15,36,1.70
2016,03,22,15,37,1.70
2016,03,22,15,38,1.70
2016,03,22,15,39,1.70
2016,03,22,15,40,1.70
2016,03,22,15,41,1.70
2016,03,22,15,42,1.70
2016,03,22,15,43,1.30
2016,03,22,15,44,1.30
2016,03,22,15,45,1.30
2016,03,22,15,46,1.30
2016,03,22,15,47,1.30
2016,03,22,15,48,1.30
2016,03,22,15,49,1.30
2016,03,22,15,50,1.30
2016,03,22,15,51,1.30
2016,03,22,15,52,1.30
2016,03,22,15,53,1.30
2016,03,22,15,54,1.30
2016,03,22,15,55,1.30
2016,03,22,15,56,1.30
2016,03,22,15,57,1.30
2016,03,22,15,58,1.30
2016,03,22,15,59,1.30
2016,03,22,16,00,1.30
2016,03,22,16,01,1.30
2016,03,22,16,02,1.30
2016,03,22,16,03,1.30
2016,03,22,16,04,1.30
2016,03,22,16,05,1.30
2016,03,22,16,06,1.30
2016,03,22,16,07,1.30
2016,03,22,16,08,1.30
2016,03,22,16,09,1.30
2016,03,22,16,10,1.30
2016,03,22,16,11,1.30
2016,03,22,16,12,1.80
2016,03,22,16,13,1.80
2016,03,22,16,14,1.80
2016,03,22,16,15,1.80
2016,03,22,16,16,1.80
2016,03,22,16,17,1.80
2016,03,22,16,18,1.80
2016,03,22,16,19,1.80
2016,03,22,16,20,1.80
2016,03,22,16,21,1.80
2016,03,22,16,22,1.80
2016,03,22,16,23,1.80
2016,03,22,16,24,1.80
2016,03,22,16,25,1.80
2016,03,22,16,26,1.80
2016,03,22,16,27,1.80
2016,03,22,16,28,1.80
2016,03,22,16,29,1.80
2016,03,22,16,30,1.80
2016,03,22,16,31,1.80
2016,03,22,16,32,1.80
2016,03,22,16,33,1.80
2016,03,22,16,34,1.80
2016,03,22,16,35,1.80
2016,03,22,16,36,1.80
2016,03,22,16,37,1.80
2016,03,22,16,38,1.80
2016,03,22,16,39,1.80
2016,03,22,16,40,1.80
2016,03,22,16,41,1.70
2016,03,22,16,42,1.70
2016,03,22,16,43,1.70
2016,03,22,16,44,1.70
2016,03,22,16,45,1.70
2016,03,22,16,46,1.70
2016,03,22,16,47,1.70
2016,03,22,16,48,1.70
2016,03,22,16,49,1.70
2016,03,22,16,50,1.70
2016,03,22,16,51,1.70
2016,03,22,16,52,1.70
2016,03,22,16,53,1.70
2016,03,22,16,54,1.70
2016,03,22,16,55,1.70
2016,03,22,16,56,1.70
2016,03,22,16,57,1.70
2016,03,22,16,58,1.70
2016,03,22,16,59,1.70
2016,03,22,17,00,1.70
2016,03,22,17,01,1.70
2016,03,22,17,02,1.70
2016,03,22,17,03,1.70
2016,03,22,17,04,1.70
2016,03,22,17,05,1.70
2016,03,22,17,06,1.70
2016,03,22,17,07,1.70
2016,03,22,17,08,1.70
2016,03,22,17,09,1.70
2016,03,22,17,10,1.70
2016,03,22,17,11,1.20
2016,03,22,17,12,1.20
2016,03,22,17,13,1.20
2016,03,22,17,14,1.20
2016,03,22,17,15,1.20
2016,03,22,17,16,1.20
2016,03,22,17,17,1.20
2016,03,22,17,18,1.20
2016,03,22,17,19,1.20
2016,03,22,17,20,1.20
2016,03,22,17,21,1.20
2016,03,22,17,22,1.20
2016,03,22,17,23,1.20
2016,03,22,17,24,1.20
2016,03,22,17,25,1.20
2016,03,22,17,26,1.20
2016,03,22,17,27,1.20
2016,03,22,17,28,1.20
2016,03,22,17,29,1.20
2016,03,22,17,30,1.20
2016,03,22,17,31,1.20
2016,03,22,17,32,1.20
2016,03,22,17,33,1.20
2016,03,22,17,34,1.20
2016,03,22,17,35,1.20
2016,03,22,17,36,1.20
2016,03,22,17,37,1.20
2016,03,22,17,38,1.20